Location: Unspecified
(42.7998°N, 0.0000°E)
Time: 07:32:47
(UTC+00:00)

COSMOS 2523 - Visible Passes

Search period start: 04 April 2026 00:00
Search period end: 14 April 2026 00:00
Orbit: 896 x 909 km, 67.1° (Epoch: 29 March)

Date Brightness Start Highest point End Pass type
(mag) Time Alt. Az. Time Alt. Az. Time Alt. Az.
4 Apr ? 19:59:15 10° N 20:02:22 14° NNE 20:05:16 10° ENE visible
4 Apr ? 21:43:40 10° NNW 21:48:23 48° NNE 21:48:23 48° NNE visible
4 Apr ? 23:30:21 10° NW 23:31:28 14° WNW 23:31:28 14° WNW visible
5 Apr ? 20:02:10 10° N 20:06:03 17° NE 20:08:39 13° ENE visible
5 Apr ? 21:46:57 10° NNW 21:51:45 57° N 21:51:45 57° N visible
5 Apr ? 23:34:18 10° WNW 23:34:51 12° WNW 23:34:51 12° WNW visible
6 Apr ? 20:05:11 10° N 20:09:41 21° NE 20:12:03 17° ENE visible
6 Apr ? 21:50:16 10° NNW 21:55:09 60° NW 21:55:09 60° NW visible
7 Apr ? 20:08:15 10° NNW 20:13:15 26° NE 20:15:30 21° ENE visible
7 Apr ? 21:53:39 10° NW 21:58:36 55° WNW 21:58:36 55° WNW visible
8 Apr ? 20:11:24 10° NNW 20:16:47 33° NE 20:18:58 26° E visible
8 Apr ? 21:57:07 10° NW 22:02:05 45° W 22:02:05 45° W visible
9 Apr ? 20:14:35 10° NNW 20:20:16 41° NE 20:22:29 30° E visible
9 Apr ? 22:00:39 10° NW 22:05:36 35° W 22:05:36 35° W visible
10 Apr ? 20:17:48 10° NNW 20:23:42 53° NE 20:26:03 34° ESE visible
10 Apr ? 22:04:20 10° NW 22:09:10 26° WSW 22:09:10 26° WSW visible
11 Apr ? 20:21:04 10° NNW 20:27:05 70° ENE 20:29:39 35° SE visible
11 Apr ? 22:08:12 10° WNW 22:12:20 20° WSW 22:12:46 19° WSW visible
12 Apr ? 20:24:22 10° NNW 20:30:26 90° SE 20:33:19 33° SSE visible
12 Apr ? 22:12:29 10° WNW 22:15:25 14° WSW 22:16:27 13° WSW visible
13 Apr ? 20:27:45 10° NW 20:33:44 69° WSW 20:37:02 27° SSE visible
